Clinton, AR

3:26 PM CDT on September 23, 2017 (GMT -0500)
Clinton

Weather History for KCCA - March, 2014

Change the Weather History Date:

Tuesday, March 18, 2014

  Actual Average (KBVX) Record (KBVX)
Temperature  
Mean Temperature 48 °F -  
Max Temperature 62 °F 63 °F 83 °F (1982)
Min Temperature 33 °F 41 °F 25 °F (1967)
Degree Days  
Heating Degree Days 18    
Moisture  
Dew Point 40 °F    
Average Humidity 76    
Maximum Humidity 100    
Minimum Humidity 45    
Precipitation  
Precipitation 0.00 in - - ()
Sea Level Pressure  
Sea Level Pressure 29.76 in    
Wind  
Wind Speed 4 mph (SSE)    
Max Wind Speed 17 mph    
Max Gust Speed 24 mph    
Visibility 9 miles    
Events      
Averages and records for this station are not official NWS values.
T = Trace of Precipitation, MM = Missing Value Source: NWS Daily Summary

Daily Weather History Graph

Daily Weather History Graph

Search for Another Location

Airport or City:

Trip Planner

Search our weather history database for the weather conditions in past years. The results will help you decide how hot, cold, wet, or windy it might be!

Date:

Astronomy

Mar. 18, 2014 Rise Set
Actual Time 7:16 AM CDT 7:19 PM CDT
Civil Twilight 6:50 AM CDT 7:45 PM CDT
Nautical Twilight 6:21 AM CDT 8:15 PM CDT
Astronomical Twilight 5:51 AM CDT 8:45 PM CDT
Moon 9:32 PM CDT (3/18) 8:10 AM CDT (3/18)
Length of Visible Light 12h 54m
Length of Day
12h 03m
Waning Gibbous, 96% of the Moon is Illuminated
Mar 18
Waning Gibbous
Mar 23
Last Quarter
Mar 30
New
Apr 7
First Quarter
Apr 15
Full

Hourly Weather History & Observations

Time (CDT) Temp. Windchill Dew Point Humidity Pressure Visibility Wind Dir Wind Speed Gust Speed Precip Events Conditions
12:15 AM 37.4 °F - 35.6 °F 93% 29.82 in 9.0 mi Calm Calm - N/A   Clear
12:35 AM 37.4 °F - 35.6 °F 93% 29.83 in 8.0 mi Calm Calm - N/A   Clear
12:55 AM 37.4 °F - 35.6 °F 93% 29.82 in 8.0 mi Calm Calm - N/A   Clear
1:15 AM 37.4 °F - 35.6 °F 93% 29.84 in 7.0 mi Calm Calm - N/A   Clear
1:35 AM 37.4 °F - 35.6 °F 93% 29.84 in 7.0 mi Calm Calm - N/A   Clear
1:55 AM 37.4 °F - 35.6 °F 93% 29.83 in 7.0 mi Calm Calm - N/A   Partly Cloudy
2:15 AM 35.6 °F - 35.6 °F 100% 29.83 in 5.0 mi Calm Calm - N/A   Partly Cloudy
2:35 AM 35.6 °F - 35.6 °F 100% 29.83 in 6.0 mi Calm Calm - N/A   Clear
2:55 AM 35.6 °F - 33.8 °F 93% 29.82 in 5.0 mi Calm Calm - N/A   Clear
3:15 AM 33.8 °F - 33.8 °F 100% 29.82 in 4.0 mi Calm Calm - N/A   Partly Cloudy
3:35 AM 33.8 °F - 33.8 °F 100% 29.81 in 3.0 mi Calm Calm - N/A   Partly Cloudy
3:55 AM 33.8 °F - 33.8 °F 100% 29.80 in 3.0 mi Calm Calm - N/A   Mostly Cloudy
4:15 AM 33.8 °F - 33.8 °F 100% 29.80 in 5.0 mi Calm Calm - N/A   Overcast
4:35 AM 35.6 °F - 33.8 °F 93% 29.79 in 5.0 mi Calm Calm - N/A   Overcast
4:55 AM 35.6 °F - 35.6 °F 100% 29.79 in 5.0 mi Calm Calm - N/A   Overcast
5:15 AM 37.4 °F - 37.4 °F 100% 29.79 in 6.0 mi Calm Calm - N/A   Overcast
5:35 AM 37.4 °F 34.9 °F 37.4 °F 100% 29.79 in 7.0 mi SE 3.5 mph - N/A   Overcast
5:55 AM 37.4 °F 32.8 °F 35.6 °F 93% 29.78 in 7.0 mi South 5.8 mph - N/A   Overcast
6:15 AM 37.4 °F 32.8 °F 35.6 °F 93% 29.78 in 7.0 mi SE 5.8 mph - N/A   Overcast
6:35 AM 37.4 °F 34.9 °F 35.6 °F 93% 29.79 in 7.0 mi South 3.5 mph - N/A   Overcast
6:55 AM 37.4 °F 33.8 °F 35.6 °F 93% 29.80 in 7.0 mi SSE 4.6 mph - N/A   Overcast
7:15 AM 37.4 °F 33.8 °F 35.6 °F 93% 29.80 in 7.0 mi South 4.6 mph - N/A   Overcast
7:35 AM 37.4 °F - 35.6 °F 93% 29.81 in 7.0 mi Calm Calm - N/A   Overcast
7:55 AM 37.4 °F 31.4 °F 35.6 °F 93% 29.81 in 8.0 mi South 8.1 mph - N/A   Overcast
8:15 AM 37.4 °F 33.8 °F 35.6 °F 93% 29.82 in 8.0 mi South 4.6 mph - N/A   Overcast
8:35 AM 39.2 °F 35.9 °F 35.6 °F 87% 29.82 in 8.0 mi SSW 4.6 mph - N/A   Overcast
8:55 AM 39.2 °F 37.0 °F 35.6 °F 87% 29.82 in 7.0 mi SSW 3.5 mph - N/A   Overcast
9:15 AM 42.8 °F 40.1 °F 37.4 °F 81% 29.82 in 9.0 mi South 4.6 mph - N/A   Scattered Clouds
9:35 AM 42.8 °F 39.3 °F 37.4 °F 81% 29.82 in 8.0 mi SSE 5.8 mph - N/A   Clear
9:55 AM 44.6 °F 40.2 °F 37.4 °F 76% 29.82 in 9.0 mi SSE 8.1 mph - N/A   Clear
10:15 AM 46.4 °F 41.9 °F 37.4 °F 71% 29.82 in 9.0 mi SSE 9.2 mph - N/A   Clear
10:35 AM 48.2 °F - 37.4 °F 66% 29.82 in 9.0 mi SSE 10.4 mph - N/A   Clear
10:55 AM 50.0 °F - 37.4 °F 62% 29.80 in 10.0 mi SE 5.8 mph - N/A   Clear
11:15 AM 51.8 °F - 37.4 °F 58% 29.80 in 10.0 mi SE 10.4 mph - N/A   Clear
11:35 AM 51.8 °F - 39.2 °F 62% 29.79 in 10.0 mi SE 12.7 mph 19.6 mph N/A   Clear
11:55 AM 55.4 °F - 39.2 °F 54% 29.78 in 10.0 mi South 10.4 mph 17.3 mph N/A   Clear
12:15 PM 55.4 °F - 39.2 °F 54% 29.78 in 9.0 mi SE 13.8 mph 18.4 mph N/A   Clear
12:35 PM 57.2 °F - 39.2 °F 51% 29.76 in 10.0 mi SE 11.5 mph 20.7 mph N/A   Clear
12:55 PM 57.2 °F - 39.2 °F 51% 29.74 in 10.0 mi South 11.5 mph 20.7 mph N/A   Clear
1:15 PM 57.2 °F - 39.2 °F 51% 29.73 in 10.0 mi SE 17.3 mph 23.0 mph N/A   Clear
1:35 PM 60.8 °F - 39.2 °F 45% 29.70 in 10.0 mi SE 16.1 mph 20.7 mph N/A   Clear
1:55 PM 60.8 °F - 39.2 °F 45% 29.69 in 10.0 mi SE 9.2 mph 16.1 mph N/A   Clear
2:15 PM 60.8 °F - 39.2 °F 45% 29.69 in 10.0 mi SSE 9.2 mph 23.0 mph N/A   Clear
2:35 PM 60.8 °F - 41.0 °F 48% 29.68 in 10.0 mi SE 15.0 mph 20.7 mph N/A   Clear
2:55 PM 60.8 °F - 42.8 °F 52% 29.67 in 10.0 mi SE 16.1 mph 23.0 mph N/A   Clear
3:15 PM 62.6 °F - 42.8 °F 48% 29.66 in 10.0 mi SSE 11.5 mph 20.7 mph N/A   Clear
3:35 PM 62.6 °F - 42.8 °F 48% 29.66 in 10.0 mi South 12.7 mph 24.2 mph N/A   Clear
3:55 PM 62.6 °F - 42.8 °F 48% 29.65 in 10.0 mi SSE 15.0 mph 21.9 mph N/A   Clear
4:15 PM 62.6 °F - 42.8 °F 48% 29.66 in 10.0 mi South 16.1 mph 23.0 mph N/A   Clear
4:35 PM 62.6 °F - 44.6 °F 52% 29.65 in 10.0 mi SSE 12.7 mph 23.0 mph N/A   Clear
4:55 PM 62.6 °F - 44.6 °F 52% 29.65 in 10.0 mi SE 11.5 mph 21.9 mph N/A   Clear
5:15 PM 62.6 °F - 44.6 °F 52% 29.64 in 10.0 mi SSE 15.0 mph 19.6 mph N/A   Clear
5:35 PM 62.6 °F - 44.6 °F 52% 29.64 in 10.0 mi SSE 11.5 mph 18.4 mph N/A   Clear
5:55 PM 62.6 °F - 44.6 °F 52% 29.66 in 10.0 mi SSE 8.1 mph 17.3 mph N/A   Clear
6:15 PM 62.6 °F - 46.4 °F 55% 29.66 in 10.0 mi SSE 12.7 mph 17.3 mph N/A   Clear
6:35 PM 62.6 °F - 46.4 °F 55% 29.67 in 10.0 mi SE 9.2 mph - N/A   Clear
6:55 PM 60.8 °F - 46.4 °F 59% 29.67 in 10.0 mi SE 8.1 mph - N/A   Clear
7:15 PM 60.8 °F - 46.4 °F 59% 29.68 in 10.0 mi SE 4.6 mph - N/A   Clear
7:35 PM 57.2 °F - 46.4 °F 67% 29.68 in 10.0 mi East 5.8 mph - N/A   Clear
7:55 PM 57.2 °F - 46.4 °F 67% 29.69 in 10.0 mi ESE 4.6 mph - N/A   Clear
8:15 PM 55.4 °F - 46.4 °F 72% 29.70 in 10.0 mi ESE 5.8 mph - N/A   Clear
8:35 PM 57.2 °F - 46.4 °F 67% 29.72 in 10.0 mi East 3.5 mph - N/A   Clear
8:55 PM 55.4 °F - 46.4 °F 72% 29.73 in 10.0 mi Calm Calm - N/A   Clear
9:15 PM 51.8 °F - 46.4 °F 82% 29.74 in 10.0 mi Calm Calm - N/A   Clear
9:35 PM 50.0 °F - 46.4 °F 87% 29.75 in 10.0 mi Calm Calm - N/A   Clear
9:55 PM 48.2 °F - 44.6 °F 87% 29.75 in 10.0 mi Calm Calm - N/A   Clear
10:15 PM 46.4 °F - 44.6 °F 93% 29.75 in 10.0 mi Calm Calm - N/A   Clear
10:35 PM 46.4 °F - 44.6 °F 93% 29.74 in 10.0 mi Calm Calm - N/A   Clear
10:55 PM 46.4 °F - 44.6 °F 93% 29.75 in 10.0 mi Calm Calm - N/A   Clear
11:15 PM 44.6 °F - 44.6 °F 100% 29.75 in 10.0 mi Calm Calm - N/A   Clear
11:35 PM 44.6 °F - 44.6 °F 100% 29.75 in 10.0 mi Calm Calm - N/A   Clear
11:55 PM 53.6 °F - 46.4 °F 77% 29.79 in 10.0 mi NW 6.9 mph 17.3 mph N/A   Clear